Other Public Products
Issued by NWS Grand Forks, ND

Home | Current Version | Previous Version | Text Only | Print | Product List | Glossary On
Versions: 1 2 3 4 5 6 7 8 9 10 11 12 13 14 15 16 17 18 19 20 21 22 23 24 25 26 27 28 29 30 31 32 33 34 35 36 37 38 39 40 41 42 43 44 45 46 47 48 49 50
000
FPUS83 KFGF 281610
OPUFGF
PRAIRIE TO PINES WEATHER ROUNDUP
NATIONAL WEATHER SERVICE EASTERN NORTH DAKOTA/GRAND FORKS ND
1000 AM CST FRI NOV 28 2014

 **SATELLITE DATA USED TO AUGMENT SKY COVER AT AUTOMATED STATIONS**
 *****  WEATHER ACROSS EASTERN NORTH DAKOTA  *****

CITY           SKY/WX    TMP DP  RH WIND       PRES   REMARKS
GRAND FORKS    LGT SNOW  12   9  85 E8        29.94F FOG     WCI   1
GRAND FORKS AF CLOUDY    12   9  85 SE9       29.93F WCI   0
GRAND CITY NWS   N/A     14 N/A N/A E6          N/A  WCI   5
BUXTON         NOT AVBL
DEVILS LAKE    CLOUDY    10   0  61 SE13      29.84F WCI  -5
FARGO          CLOUDY    15   6  67 SE10      29.93S WCI   2
WAHPETON ARPT  CLOUDY    14   7  73 SE9       29.91F WCI   2
$$

 *****  WEATHER ACROSS CENTRAL AND WESTERN NORTH DAKOTA  *****

CITY           SKY/WX    TMP DP  RH WIND       PRES   REMARKS
JAMESTOWN      CLOUDY     9   4  80 SE13      29.82F WCI  -7
BISMARCK       PTSUNNY   13   8  81 E9        29.78S WCI   1
MINOT          CLOUDY     9   4  80 E15       29.76F WCI  -8
MINOT AFB      CLOUDY     9   6  88 SE14      29.77F WCI  -8
GARRISON         N/A     12   9  87 E14       29.73F WCI  -3
WILLISTON      CLOUDY    16  12  84 E10       29.65F WCI   4
DICKINSON      CLOUDY    19  16  88 E9        29.61F WCI   8
HETTINGER      CLOUDY    31  25  78 CALM      29.64F
$$

 *****  OTHER OBSERVATIONS NORTHEAST NORTH DAKOTA  *****

CITY           SKY/WX    TMP DP  RH WIND       PRES   REMARKS
WALHALLA         N/A      9   9 100 E9        29.96F WCI  -5
LANGDON        CLOUDY     9   5  85 E13       29.87S WCI  -7
CAVALIER       LGT SNOW  10   7  85 E7        29.96F VSB 3/4 WCI   0
GRAFTON        CLOUDY    12   9  85 E7        29.97S FOG     WCI   2
CANDO          CLOUDY    10   7  85 E9        29.88R WCI  -2
FORT TOTTEN    NOT AVBL
ROLLA          CLOUDY     7   3  85 E14       29.83F WCI -10
RUGBY          CLOUDY     9   5  85 E17       29.82F WCI -10
 ***** THE ABOVE OBSERVATIONS ARE NON NWS ARE NOT QUALITY
        CONTROLLED AND MAY MIS-REPORT RAIN FOR SNOW...
$$

 *****  OTHER OBSERVATIONS SOUTHEAST NORTH DAKOTA *****

CITY           SKY/WX    TMP DP  RH WIND       PRES   REMARKS
COOPERSTOWN    NOT AVBL
VALLEY CITY    CLOUDY     9   7  92 SE13      29.85F WCI  -7
OAKES            N/A     10   7  85 E15       29.83F WCI  -6
GWINNER        CLOUDY    12   7  79 E15       29.87F WCI  -4
SHEYENNE NWR     N/A     11   5  77 SE12      29.95  WCI  -3
BUFFALO        NOT AVBL
WYNDMERE         N/A     10   7  85 SE9         N/A  WCI  -2
 ***** THE ABOVE OBSERVATIONS ARE NON NWS ARE NOT QUALITY
       CONTROLLED AND MAY MIS-REPORT RAIN FOR SNOW...
$$

  *****  WEATHER ACROSS NORTHERN MINNESOTA  *****

CITY           SKY/WX    TMP DP  RH WIND       PRES   REMARKS
FLAG ISLAND    MOSUNNY    7   0  72 E5        29.98F WCI  -2
WARROAD        MOSUNNY    9   3  78 E6        29.98S WCI  -1
ROSEAU         SUNNY     10   3  72 E6        29.97F WCI   1
HALLOCK        LGT SNOW  12   9  85 E7        29.96F WCI   2
THF RVR FALLS  CLOUDY    10   7  85 SE9       29.94R WCI  -2
HALSTAD          N/A     13   7  76 SE10        N/A  WCI   0
FOSSTON        CLOUDY    10   5  79 SE8       29.92F WCI  -1
BAUDETTE       PTSUNNY    8   1  73 SE5       29.97F WCI   0
WASKISH        FLURRIES  10   7  85 CALM      29.97S
CROOKSTON      FLURRIES  14   9  79 SE7       29.95F WCI   4
$$
  *****  WEATHER ACROSS CENTRAL AND WEST MINNESOTA  *****

CITY           SKY/WX    TMP DP  RH WIND       PRES   REMARKS
BEMIDJI        LGT SNOW  10   6  84 E8        29.92F WCI  -3
PARK RAPIDS    LGT SNOW  10   5  80 SE12      29.90F WCI  -5
WADENA         FLURRIES   9   5  85 SE12      29.91F WCI  -6
DETROIT LAKES  MOSUNNY   12   9  85 SE10      29.90F WCI  -1
MOORHEAD       CLOUDY    14  10  85 E8        29.93S WCI   3
FERGUS FALLS   CLOUDY    12   3  67 SE9       29.93F WCI   0
ELBOW LAKE     CLOUDY    12   7  79 SE10      29.89F HAZE    WCI  -1
MORRIS MN      MOSUNNY   14   9  79 E13       29.89S WCI   0
STAPLES        CLOUDY     9   5  85 E7        29.93S WCI  -3
WHEATON        PTSUNNY   10   7  85 E13       29.92S WCI  -5
$$
  *****  WEATHER ELSEWHERE ACROSS MINNESOTA  *****

CITY           SKY/WX    TMP DP  RH WIND       PRES   REMARKS
DULUTH         LGT SNOW  12   8  84 SE8       29.98F VSB 3/4 WCI   0
INTRNTL FALLS  CLOUDY     9   1  70 SE7       29.98F WCI  -2
ELY            FLURRIES  10   5  79 SE5       29.99F WCI   2
CLOQUET        LGT SNOW   9   7  92 E6        29.98F WCI  -1
BRAINERD       CLOUDY    11   6  81 VRB5      29.96F WCI   3
HIBBING        LGT SNOW  11   4  73 SE7       29.98F WCI   0
ALEXANDRIA     LGT SNOW  11   6  81 E13       29.89F WCI  -4
SAINT CLOUD    CLOUDY    14   7  73 E8        29.95F HAZE    WCI   3
MINNEAPOLIS    CLOUDY    16   9  74 E9        30.00R WCI   4
$$

  *****  WEATHER ACROSS SOUTH DAKOTA  *****

CITY           SKY/WX    TMP DP  RH WIND       PRES   REMARKS
SIOUX FALLS    CLOUDY    24  20  84 E5        29.81S WCI  18
BROOKINGS      NOT AVBL
WATERTOWN      CLOUDY    16  11  80 E7        29.79S WCI   6
HURON          PTSUNNY   26  19  74 SE7       29.78F WCI  18
SISSETON         N/A     10   7  87 S12       29.87F WCI  -5
ABERDEEN       CLOUDY    18  12  77 NE9       29.81F WCI   7
MITCHELL       MOSUNNY   27  21  78 E7        29.79S WCI  19
PIERRE         MOSUNNY   23  17  78 NE3       29.70F
MOBRIDGE       CLOUDY    20  15  81 E9        29.70F WCI   9
RAPID CITY     MOSUNNY   43  31  62 CALM      29.70F
$$

  *****  SOME WEATHER IN NEARBY STATES *****

CITY           SKY/WX    TMP DP  RH WIND       PRES   REMARKS
GLASGOW MT     CLOUDY    18  16  92 SE15      29.54F FOG     WCI   4
GREAT FALLS MT PTCLDY    51  33  50 SW28G43   29.48F
CHEYENNE WY    PTSUNNY   54  12  18 W21       29.92F
SCOTTSBLUFF NE MOSUNNY   57  24  28 W12       29.83S
OMAHA NE       PTSUNNY   35  25  66 S12       29.86F
DES MOINES IA  PTSUNNY   30  23  75 S9        29.94F WCI  22
DAVENPORT IA   PTSUNNY   23  16  74 S22       30.07  WCI   8
CHICAGO IL     PTSUNNY   22  15  75 S16       30.21F WCI   8
EAU CLAIRE WI  CLOUDY    14   8  77 SE6       30.04S WCI   5
LA CROSSE WI   MOSUNNY   21  10  62 SE10      30.05F WCI  10
$$

  *****  SOME NATIONAL WEATHER *****

CITY           SKY/WX    TMP DP  RH WIND       PRES   REMARKS
LA GUARDIA NY  MOSUNNY   36  20  52 NW21G29   30.17F
RALEIGH NC     MOSUNNY   40  19  43 NW9       30.37F
ATLANTA GA     SUNNY     40  20  44 N5        30.40R
NEW ORLEANS LA SUNNY     52  36  54 E8        30.44R
OKLAHOMA CITY  MOSUNNY   54  34  46 S18G26    30.07F
ALBUQUERQUE NM MOSUNNY   39  19  44 NW5       30.30R
SALT LAKE CITY CLOUDY    48  22  35 SE5       30.00S
LOS ANGELES CA MOSUNNY   61  44  53 SE7       29.99S
BOISE ID       CLOUDY    46  36  68 SE10      29.83S
SEATTLE WA     CLOUDY    55  49  80 S15       29.52F
$$

*** WEATHER ACROSS MANITOBA...SASKATCHEWAN AND ONTARIO ***
                ***ONTARIO***

CITY           SKY/WX    TMP DP  RH WIND       PRES   REMARKS
GERALDTON      PTSUNNY   -4  -8  84 CALM      30.05F
THUNDER BAY    PTSUNNY    3  -2  78 W3        30.13F
SIOUX LOOKOUT  PTSUNNY    0  -6  78 CALM      30.03F
TORONTO        CLOUDY    25  12  58 NW14      30.26S WCI  13
BIG TROUT LK   SUNNY    -13 -18  77 NW9       30.06R WCI -31
PICKLE LAKE    MOSUNNY   -6 -13  71 W7        30.03R WCI -20
DRYDEN         SUNNY      1  -4  78 E3        30.00F
KENORA         PTSUNNY    1  -4  78 E5        29.99S WCI  -8
$$
                *** MANITOBA***

CITY           SKY/WX    TMP DP  RH WIND       PRES   REMARKS
BRANDON        LGT SNOW   7   1  78 E18G25    29.90F DRFTSNOWWCI -12
DAUPHIN        LGT SNOW   3   1  92 NE12      29.99F WCI -13
ISLAND LAKE    PTCLDY   -15 -22  70 NW5       30.12S WCI -27
PILOT MOUND      N/A      7   3  85 E10         N/A  WCI  -8
THE PAS        CLOUDY   -11 -15  84 E5        30.10F WCI -23
THOMPSON       PTCLDY   -27 -35  68 VRB2      30.14R
WINNIPEG       CLOUDY     7   0  72 E7        30.02F WCI  -5
LYNN LAKE      CLEAR    -18 -24  76 W5        30.08R WCI -31
CHURCHILL      CRYSTALS -13 -20  70 NW15      30.03R WCI -36
GILLAM         PTCLDY   -20 -27  69 W8        30.10S WCI -39
$$
                ***SASKATCHEWAN***

CITY           SKY/WX    TMP DP  RH WIND       PRES   REMARKS
ESTEVAN        LGT SNOW   9   3  78 E21G26    29.70F DRFTSNOWWCI -11
KINDERSLEY     LGT SNOW   7   3  85 NE12      29.55R BLWGSNOWWCI  -9
LLOYDMINSTER   LGT SNOW  -4  -9  77 N10       29.72S VSB 3/4 WCI -21
PRINCE ALBERT  LGT SNOW  -2  -8  78 E16       29.87F VSB 3/4 WCI -23
REGINA         LGT SNOW  10   7  85 SE23G30   29.66F BLWGSNOWWCI -10



USA.gov is the U.S. government's official web portal to all federal, state and local government web resources and services.